This is the latest recevied weather packets stored in our database for station/object AA8FM-13. If no packets are shown the sender has not sent any weather packets the latest 1 day(s).
| Time | Temp. | Humidity | Pressure | Rain* | Wind** | Luminosity | Snow |
|---|---|---|---|---|---|---|---|
| 1778016008 | 23.33° C | 45% | 1006.9 hPa | 0 mm | 1.34 m/s, 5° | 169 W/m² | - |
| 1778015706 | 23.33° C | 46% | 1007.2 hPa | 0 mm | 0.45 m/s, 151° | 218 W/m² | - |
| 1778015402 | 23.33° C | 45% | 1006.7 hPa | 0 mm | 0.45 m/s, 40° | 226 W/m² | - |
| 1778015099 | 23.33° C | 46% | 1006.7 hPa | 0 mm | 0.45 m/s, 334° | 197 W/m² | - |
| 1778014795 | 23.33° C | 47% | 1006.6 hPa | 0 mm | 0.45 m/s, 299° | 179 W/m² | - |
| 1778014494 | 23.33° C | 44% | 1006.6 hPa | 0 mm | 4.02 m/s, 344° | 190 W/m² | - |
| 1778014190 | 23.33° C | 46% | 1006.6 hPa | 0 mm | 0.89 m/s, 27° | 245 W/m² | - |
| 1778013889 | 23.33° C | 45% | 1006.6 hPa | 0 mm | 0.45 m/s, 89° | 214 W/m² | - |
| 1778013586 | 23.33° C | 45% | 1006.5 hPa | 0 mm | 1.79 m/s, 333° | 210 W/m² | - |
| 1778013283 | 23.33° C | 45% | 1006.9 hPa | 0 mm | 3.58 m/s, 155° | 201 W/m² | - |
| 1778012979 | 23.33° C | 45% | 1006.8 hPa | 0 mm | 1.79 m/s, 216° | 210 W/m² | - |
| 1778012675 | 23.33° C | 44% | 1006.9 hPa | 0 mm | 1.34 m/s, 110° | 247 W/m² | - |
| 1778012371 | 23.33° C | 44% | 1006.9 hPa | 0 mm | 0.45 m/s, 51° | 288 W/m² | - |
| 1778012068 | 23.89° C | 43% | 1006.9 hPa | 0 mm | 2.68 m/s, 345° | 301 W/m² | - |
| 1778011766 | 23.89° C | 45% | 1006.7 hPa | 0 mm | 0.45 m/s, 215° | 330 W/m² | - |
| 1778011463 | 23.89° C | 45% | 1006.9 hPa | 0 mm | 0.45 m/s, 161° | 293 W/m² | - |
| 1778011159 | 23.89° C | 44% | 1007.1 hPa | 0 mm | 2.24 m/s, 286° | 302 W/m² | - |
| 1778010857 | 23.89° C | 44% | 1007.2 hPa | 0 mm | 2.24 m/s, 197° | 275 W/m² | - |
| 1778010555 | 23.89° C | 45% | 1007.1 hPa | 0 mm | 2.24 m/s, 249° | 250 W/m² | - |
| 1778010252 | 23.89° C | 48% | 1007.2 hPa | 0 mm | 0 m/s | 246 W/m² | - |
| 1778009951 | 23.89° C | 47% | 1007.2 hPa | 0 mm | 0 m/s | 257 W/m² | - |
| 1778009650 | 23.89° C | 44% | 1007.1 hPa | 0 mm | 0 m/s | 266 W/m² | - |
| 1778009347 | 23.33° C | 44% | 1007.1 hPa | 0 mm | 1.79 m/s, 327° | 268 W/m² | - |
| 1778009045 | 23.89° C | 45% | 1006.8 hPa | 0 mm | 2.24 m/s, 159° | 284 W/m² | - |
| 1778008742 | 23.89° C | 44% | 1007.2 hPa | 0 mm | 0 m/s | 322 W/m² | - |
* Rain latest hour (hover to see other rain measurements)
** Current wind speed in m/s (hover to see current wind gust speed)